BVX77K LIMC-EDDP

Flight info

Callsign BVX77K
Flight time N/A
Altitude 34000
Route PEPAG DCT ABESI N851 UTAVO DCT ROLSA/N0470F350 DCT LOKTA DCT ETAGO DCT IBAGA T435 PIBAD/N0469F310 T954 GOXLI GOXLI1V
Aircraft B77W/H-SDE1E2E3FGHIJ2J3J4J5M1RWXY/LB1D1

Departure

Time 2026-05-05 11:30
Airport Milan Malpensa International Airport (LIMC)

Arrival

Time N/A
Airport Leipzig/Halle Airport (EDDP)
Time Latitude Longitude Altitude Speed Heading
2026-05-05 11:01 45.62824 8.71684 741 ft 0 kts 259°
2026-05-05 11:15 45.62827 8.71703 738 ft 3 kts 253°
2026-05-05 11:15 45.62834 8.71733 737 ft 3 kts 245°
2026-05-05 11:15 45.62843 8.71756 738 ft 2 kts 230°
2026-05-05 11:15 45.62854 8.71769 738 ft 2 kts 201°
2026-05-05 11:16 45.62865 8.71773 738 ft 2 kts 183°
2026-05-05 11:16 45.62876 8.71772 738 ft 2 kts 172°
2026-05-05 11:16 45.62887 8.71770 738 ft 2 kts 168°
2026-05-05 11:16 45.62890 8.71769 738 ft 0 kts 168°
2026-05-05 11:21 45.62802 8.71795 739 ft 28 kts 168°
2026-05-05 11:22 45.62596 8.71852 739 ft 30 kts 169°
2026-05-05 11:22 45.62487 8.71875 740 ft 6 kts 170°
2026-05-05 11:22 45.62443 8.71887 739 ft 7 kts 169°
2026-05-05 11:22 45.62394 8.71901 740 ft 8 kts 169°
2026-05-05 11:23 45.62338 8.71917 739 ft 9 kts 169°
2026-05-05 11:23 45.62275 8.71935 738 ft 10 kts 169°
2026-05-05 11:23 45.62254 8.71940 741 ft 3 kts 169°
2026-05-05 11:23 45.62227 8.71948 738 ft 5 kts 168°
2026-05-05 11:24 45.62194 8.71966 739 ft 6 kts 143°
2026-05-05 11:24 45.62185 8.72023 739 ft 6 kts 85°
2026-05-05 11:24 45.62191 8.72091 739 ft 7 kts 79°
2026-05-05 11:24 45.62202 8.72167 741 ft 8 kts 79°
2026-05-05 11:25 45.62213 8.72251 739 ft 9 kts 79°
2026-05-05 11:25 45.62225 8.72342 739 ft 10 kts 79°
2026-05-05 11:25 45.62238 8.72435 741 ft 10 kts 79°
2026-05-05 11:25 45.62251 8.72528 740 ft 10 kts 79°
2026-05-05 11:26 45.62265 8.72625 741 ft 11 kts 78°
2026-05-05 11:26 45.62281 8.72739 741 ft 12 kts 78°
2026-05-05 11:26 45.62298 8.72864 739 ft 13 kts 78°
2026-05-05 11:26 45.62298 8.72992 740 ft 14 kts 129°
2026-05-05 11:27 45.62209 8.73044 740 ft 14 kts 167°
2026-05-05 11:27 45.62108 8.73073 740 ft 15 kts 169°
2026-05-05 11:27 45.62007 8.73100 741 ft 15 kts 169°
2026-05-05 11:27 45.61906 8.73127 739 ft 15 kts 169°
2026-05-05 11:28 45.61805 8.73154 742 ft 15 kts 168°
2026-05-05 11:28 45.61723 8.73243 739 ft 15 kts 130°
2026-05-05 11:28 45.61663 8.73370 740 ft 16 kts 124°
2026-05-05 11:28 45.61601 8.73503 740 ft 16 kts 120°
2026-05-05 11:29 45.61589 8.73659 741 ft 16 kts 73°
2026-05-05 11:29 45.61679 8.73733 742 ft 17 kts 351°
2026-05-05 11:29 45.61891 8.73660 739 ft 65 kts 348°
2026-05-05 11:29 45.62763 8.73416 746 ft 190 kts 348°
2026-05-05 11:30 45.64265 8.72881 1235 ft 228 kts 344°
2026-05-05 11:30 45.65743 8.72182 2098 ft 218 kts 346°
2026-05-05 11:30 45.67206 8.72238 3049 ft 210 kts 26°
2026-05-05 11:30 45.68221 8.73629 3849 ft 204 kts 69°
2026-05-05 11:31 45.68702 8.75524 4455 ft 210 kts 63°
2026-05-05 11:31 45.69846 8.77061 4707 ft 243 kts 37°